Time,TemperatureF,DewpointF,PressureIn,WindDirection,WindDirectionDegrees,WindSpeedMPH,WindSpeedGustMPH,Humidity,HourlyPrecipIn,Conditions,Clouds,dailyrainin,SoftwareType,DateUTC
2013-07-04 00:00:00,67.5,56.6,29.95,East,90,0.0,0.0,68,0.00,,---,0.00,VWS V14.00,2013-07-04 05:00:00,
2013-07-04 00:05:00,67.0,56.5,29.95,East,90,0.0,0.0,69,0.00,,---,0.00,VWS V14.00,2013-07-04 05:05:00,
2013-07-04 00:10:00,66.6,56.5,29.95,East,90,0.0,0.0,70,0.00,,---,0.00,VWS V14.00,2013-07-04 05:10:00,
2013-07-04 00:15:00,66.5,56.8,29.96,East,90,0.0,0.0,71,0.00,,---,0.00,VWS V14.00,2013-07-04 05:15:00,
2013-07-04 00:20:00,66.3,56.6,29.96,East,90,0.0,0.0,71,0.00,,---,0.00,VWS V14.00,2013-07-04 05:20:00,
2013-07-04 00:25:00,66.3,56.6,29.95,East,90,0.0,0.0,71,0.00,,---,0.00,VWS V14.00,2013-07-04 05:25:00,
2013-07-04 00:30:00,66.2,56.1,29.95,East,90,0.0,0.0,70,0.00,,---,0.00,VWS V14.00,2013-07-04 05:30:00,
2013-07-04 00:35:00,66.2,56.1,29.95,East,90,0.0,0.0,70,0.00,,---,0.00,VWS V14.00,2013-07-04 05:35:00,
2013-07-04 00:40:00,66.3,56.6,29.95,East,90,0.0,0.0,71,0.00,,---,0.00,VWS V14.00,2013-07-04 05:40:00,
2013-07-04 00:45:00,66.3,57.0,29.95,East,90,0.0,0.0,72,0.00,,---,0.00,VWS V14.00,2013-07-04 05:45:00,
2013-07-04 00:50:00,66.2,57.3,29.95,East,90,0.0,0.0,73,0.00,,---,0.00,VWS V14.00,2013-07-04 05:50:00,
2013-07-04 00:55:00,65.9,57.0,29.95,East,90,0.0,0.0,73,0.00,,---,0.00,VWS V14.00,2013-07-04 05:55:00,
2013-07-04 01:00:00,65.6,57.1,29.95,East,90,0.0,0.0,74,0.00,,---,0.00,VWS V14.00,2013-07-04 06:00:00,
2013-07-04 01:05:00,65.3,57.2,29.95,East,90,0.0,0.0,75,0.00,,---,0.00,VWS V14.00,2013-07-04 06:05:00,
2013-07-04 01:10:00,64.9,56.8,29.95,East,90,0.0,0.0,75,0.00,,---,0.00,VWS V14.00,2013-07-04 06:10:00,
2013-07-04 01:15:00,64.6,56.9,29.95,East,90,0.0,0.0,76,0.00,,---,0.00,VWS V14.00,2013-07-04 06:15:00,
2013-07-04 01:20:00,64.3,56.6,29.95,East,90,0.0,0.0,76,0.00,,---,0.00,VWS V14.00,2013-07-04 06:20:00,
2013-07-04 01:25:00,64.1,56.4,29.95,East,90,0.0,0.0,76,0.00,,---,0.00,VWS V14.00,2013-07-04 06:25:00,
2013-07-04 01:30:00,64.1,56.4,29.94,East,90,0.0,0.0,76,0.00,,---,0.00,VWS V14.00,2013-07-04 06:30:00,
2013-07-04 01:35:00,64.0,56.3,29.95,East,90,0.0,0.0,76,0.00,,---,0.00,VWS V14.00,2013-07-04 06:35:00,
2013-07-04 01:40:00,64.0,56.7,29.95,East,90,0.0,0.0,77,0.00,,---,0.00,VWS V14.00,2013-07-04 06:40:00,
2013-07-04 01:45:00,63.9,56.6,29.95,East,90,0.0,0.0,77,0.00,,---,0.00,VWS V14.00,2013-07-04 06:45:00,
2013-07-04 01:50:00,63.8,56.5,29.95,East,90,0.0,0.0,77,0.00,,---,0.00,VWS V14.00,2013-07-04 06:50:00,
2013-07-04 01:55:00,63.7,56.4,29.95,East,90,0.0,0.0,77,0.00,,---,0.00,VWS V14.00,2013-07-04 06:55:00,
2013-07-04 02:00:00,63.5,56.5,29.95,East,90,0.0,0.0,78,0.00,,---,0.00,VWS V14.00,2013-07-04 07:00:00,
2013-07-04 02:05:00,63.3,56.0,29.95,East,90,0.0,0.0,77,0.00,,---,0.00,VWS V14.00,2013-07-04 07:05:00,
2013-07-04 02:10:00,63.2,55.9,29.95,East,90,0.0,0.0,77,0.00,,---,0.00,VWS V14.00,2013-07-04 07:10:00,
2013-07-04 02:15:00,63.1,55.8,29.95,East,90,0.0,0.0,77,0.00,,---,0.00,VWS V14.00,2013-07-04 07:15:00,
2013-07-04 02:20:00,63.0,55.7,29.94,East,90,0.0,0.0,77,0.00,,---,0.00,VWS V14.00,2013-07-04 07:20:00,
2013-07-04 02:25:00,63.0,55.7,29.94,East,90,0.0,0.0,77,0.00,,---,0.00,VWS V14.00,2013-07-04 07:25:00,
2013-07-04 02:30:00,63.0,55.3,29.94,East,90,0.0,0.0,76,0.00,,---,0.00,VWS V14.00,2013-07-04 07:30:00,
2013-07-04 02:35:00,63.1,55.4,29.94,East,90,0.0,0.0,76,0.00,,---,0.00,VWS V14.00,2013-07-04 07:35:00,
2013-07-04 02:40:00,63.1,55.4,29.94,East,90,0.0,0.0,76,0.00,,---,0.00,VWS V14.00,2013-07-04 07:40:00,
2013-07-04 02:45:00,63.1,55.4,29.94,East,90,0.0,0.0,76,0.00,,---,0.00,VWS V14.00,2013-07-04 07:45:00,
2013-07-04 02:50:00,63.1,55.4,29.94,East,90,0.0,0.0,76,0.00,,---,0.00,VWS V14.00,2013-07-04 07:50:00,
2013-07-04 02:55:00,63.2,55.5,29.94,East,90,0.0,0.0,76,0.00,,---,0.00,VWS V14.00,2013-07-04 07:55:00,
2013-07-04 03:00:00,63.3,55.6,29.94,East,90,0.0,0.0,76,0.00,,---,0.00,VWS V14.00,2013-07-04 08:00:00,
2013-07-04 03:05:00,63.6,55.5,29.94,East,90,0.0,0.0,75,0.00,,---,0.00,VWS V14.00,2013-07-04 08:05:00,
2013-07-04 03:10:00,63.9,55.5,29.94,East,90,0.0,0.0,74,0.00,,---,0.00,VWS V14.00,2013-07-04 08:10:00,
2013-07-04 03:15:00,64.1,55.7,29.94,East,90,0.0,0.0,74,0.00,,---,0.00,VWS V14.00,2013-07-04 08:15:00,
2013-07-04 03:20:00,64.2,55.8,29.94,East,90,0.0,0.0,74,0.00,,---,0.00,VWS V14.00,2013-07-04 08:20:00,
2013-07-04 03:25:00,64.3,55.8,29.94,East,90,0.0,2.0,74,0.00,,---,0.00,VWS V14.00,2013-07-04 08:25:00,
2013-07-04 03:30:00,64.4,55.9,29.94,East,90,0.0,0.0,74,0.00,,---,0.00,VWS V14.00,2013-07-04 08:30:00,
2013-07-04 03:35:00,64.6,56.1,29.94,East,90,1.0,4.0,74,0.00,,---,0.00,VWS V14.00,2013-07-04 08:35:00,
2013-07-04 03:40:00,64.7,56.2,29.94,East,90,3.0,4.0,74,0.00,,---,0.00,VWS V14.00,2013-07-04 08:40:00,
2013-07-04 03:45:00,64.9,56.4,29.94,East,90,3.0,6.0,74,0.00,,---,0.00,VWS V14.00,2013-07-04 08:45:00,
2013-07-04 03:50:00,65.1,56.6,29.93,East,90,3.0,6.0,74,0.00,,---,0.00,VWS V14.00,2013-07-04 08:50:00,
2013-07-04 03:55:00,65.2,56.7,29.93,East,90,3.0,5.0,74,0.00,,---,0.00,VWS V14.00,2013-07-04 08:55:00,
2013-07-04 04:00:00,65.3,57.2,29.93,East,90,2.0,4.0,75,0.00,,---,0.00,VWS V14.00,2013-07-04 09:00:00,
2013-07-04 04:05:00,65.2,56.7,29.93,East,90,2.0,4.0,74,0.00,,---,0.00,VWS V14.00,2013-07-04 09:05:00,
2013-07-04 04:10:00,65.2,57.1,29.94,East,90,0.0,3.0,75,0.00,,---,0.00,VWS V14.00,2013-07-04 09:10:00,
2013-07-04 04:15:00,65.2,57.1,29.94,East,90,0.0,2.0,75,0.00,,---,0.00,VWS V14.00,2013-07-04 09:15:00,
2013-07-04 04:20:00,65.2,57.1,29.94,East,90,1.0,5.0,75,0.00,,---,0.00,VWS V14.00,2013-07-04 09:20:00,
2013-07-04 04:25:00,65.1,57.0,29.94,East,90,0.0,0.0,75,0.00,,---,0.00,VWS V14.00,2013-07-04 09:25:00,
2013-07-04 04:30:00,65.0,56.5,29.94,East,90,0.0,0.0,74,0.00,,---,0.00,VWS V14.00,2013-07-04 09:30:00,
2013-07-04 04:35:00,64.7,56.2,29.94,East,90,0.0,0.0,74,0.00,,---,0.00,VWS V14.00,2013-07-04 09:35:00,
2013-07-04 04:40:00,64.1,56.0,29.94,East,90,0.0,0.0,75,0.00,,---,0.00,VWS V14.00,2013-07-04 09:40:00,
2013-07-04 04:45:00,63.5,55.8,29.94,East,90,0.0,0.0,76,0.00,,---,0.00,VWS V14.00,2013-07-04 09:45:00,
2013-07-04 04:50:00,63.2,55.9,29.94,East,90,0.0,0.0,77,0.00,,---,0.00,VWS V14.00,2013-07-04 09:50:00,
2013-07-04 04:55:00,63.0,55.7,29.94,East,90,0.0,0.0,77,0.00,,---,0.00,VWS V14.00,2013-07-04 09:55:00,
2013-07-04 05:00:00,62.7,55.8,29.94,East,90,0.0,0.0,78,0.00,,---,0.00,VWS V14.00,2013-07-04 10:00:00,
2013-07-04 05:05:00,62.5,55.6,29.94,East,90,0.0,0.0,78,0.00,,---,0.00,VWS V14.00,2013-07-04 10:05:00,
2013-07-04 05:10:00,62.3,55.4,29.94,East,90,0.0,0.0,78,0.00,,---,0.00,VWS V14.00,2013-07-04 10:10:00,
2013-07-04 05:15:00,62.1,55.2,29.94,East,90,0.0,0.0,78,0.00,,---,0.00,VWS V14.00,2013-07-04 10:15:00,
2013-07-04 05:20:00,61.9,55.0,29.94,East,90,0.0,0.0,78,0.00,,---,0.00,VWS V14.00,2013-07-04 10:20:00,
2013-07-04 05:25:00,61.7,55.1,29.94,East,90,0.0,0.0,79,0.00,,---,0.00,VWS V14.00,2013-07-04 10:25:00,
2013-07-04 05:30:00,61.6,55.4,29.94,East,90,0.0,0.0,80,0.00,,---,0.00,VWS V14.00,2013-07-04 10:30:00,
2013-07-04 05:35:00,61.4,55.2,29.95,East,90,0.0,0.0,80,0.00,,---,0.00,VWS V14.00,2013-07-04 10:35:00,
2013-07-04 05:40:00,61.3,55.4,29.94,East,90,0.0,0.0,81,0.00,,---,0.00,VWS V14.00,2013-07-04 10:40:00,
2013-07-04 05:45:00,61.2,55.7,29.95,East,90,0.0,0.0,82,0.00,,---,0.00,VWS V14.00,2013-07-04 10:45:00,
2013-07-04 05:50:00,61.1,55.6,29.95,East,90,0.0,0.0,82,0.00,,---,0.00,VWS V14.00,2013-07-04 10:50:00,
2013-07-04 05:55:00,61.1,55.6,29.95,East,90,0.0,0.0,82,0.00,,---,0.00,VWS V14.00,2013-07-04 10:55:00,
2013-07-04 06:00:00,61.0,55.8,29.95,East,90,0.0,0.0,83,0.00,,---,0.00,VWS V14.00,2013-07-04 11:00:00,
2013-07-04 06:05:00,60.9,55.7,29.95,East,90,0.0,0.0,83,0.00,,---,0.00,VWS V14.00,2013-07-04 11:05:00,
2013-07-04 06:10:00,60.9,56.0,29.95,East,90,0.0,0.0,84,0.00,,---,0.00,VWS V14.00,2013-07-04 11:10:00,
2013-07-04 06:15:00,60.9,56.0,29.95,East,90,0.0,0.0,84,0.00,,---,0.00,VWS V14.00,2013-07-04 11:15:00,
2013-07-04 06:20:00,60.8,55.9,29.96,East,90,0.0,0.0,84,0.00,,---,0.00,VWS V14.00,2013-07-04 11:20:00,
2013-07-04 06:25:00,60.7,55.8,29.96,East,90,0.0,0.0,84,0.00,,---,0.00,VWS V14.00,2013-07-04 11:25:00,
2013-07-04 06:30:00,60.6,55.8,29.96,East,90,0.0,0.0,84,0.00,,---,0.00,VWS V14.00,2013-07-04 11:30:00,
2013-07-04 06:35:00,60.4,55.5,29.96,East,90,0.0,0.0,84,0.00,,---,0.00,VWS V14.00,2013-07-04 11:35:00,
2013-07-04 06:40:00,60.4,55.5,29.96,East,90,0.0,0.0,84,0.00,,---,0.00,VWS V14.00,2013-07-04 11:40:00,
2013-07-04 06:45:00,60.3,55.8,29.96,East,90,0.0,0.0,85,0.00,,---,0.00,VWS V14.00,2013-07-04 11:45:00,
2013-07-04 06:50:00,60.4,55.9,29.96,East,90,0.0,0.0,85,0.00,,---,0.00,VWS V14.00,2013-07-04 11:50:00,
2013-07-04 06:55:00,60.4,55.9,29.96,East,90,0.0,0.0,85,0.00,,---,0.00,VWS V14.00,2013-07-04 11:55:00,
2013-07-04 07:00:00,60.5,56.0,29.96,East,90,0.0,0.0,85,0.00,,---,0.00,VWS V14.00,2013-07-04 12:00:00,
2013-07-04 07:05:00,60.8,56.6,29.97,East,90,0.0,0.0,86,0.00,,---,0.00,VWS V14.00,2013-07-04 12:05:00,
2013-07-04 07:10:00,61.1,57.2,29.97,East,90,0.0,0.0,87,0.00,,---,0.00,VWS V14.00,2013-07-04 12:10:00,
2013-07-04 07:15:00,61.5,57.6,29.97,East,90,0.0,0.0,87,0.00,,---,0.00,VWS V14.00,2013-07-04 12:15:00,
2013-07-04 07:20:00,61.9,58.0,29.97,East,90,0.0,0.0,87,0.00,,---,0.00,VWS V14.00,2013-07-04 12:20:00,
2013-07-04 07:25:00,62.2,58.3,29.97,East,90,0.0,0.0,87,0.00,,---,0.00,VWS V14.00,2013-07-04 12:25:00,
2013-07-04 07:30:00,62.6,58.7,29.97,East,90,0.0,0.0,87,0.00,,---,0.00,VWS V14.00,2013-07-04 12:30:00,
2013-07-04 07:35:00,63.0,59.1,29.97,East,90,0.0,0.0,87,0.00,,---,0.00,VWS V14.00,2013-07-04 12:35:00,
2013-07-04 07:40:00,63.6,59.7,29.97,East,90,0.0,4.0,87,0.00,,---,0.00,VWS V14.00,2013-07-04 12:40:00,
2013-07-04 07:45:00,64.2,59.9,29.97,East,90,0.0,1.0,86,0.00,,---,0.00,VWS V14.00,2013-07-04 12:45:00,
2013-07-04 07:50:00,65.0,60.4,29.97,East,90,2.0,5.0,85,0.00,,---,0.00,VWS V14.00,2013-07-04 12:50:00,
2013-07-04 07:55:00,65.8,60.5,29.97,East,90,1.0,5.0,83,0.00,,---,0.00,VWS V14.00,2013-07-04 12:55:00,
2013-07-04 08:00:00,66.7,60.7,29.97,East,90,3.0,5.0,81,0.00,,---,0.00,VWS V14.00,2013-07-04 13:00:00,
2013-07-04 08:05:00,67.6,60.9,29.97,East,90,4.0,7.0,79,0.00,,---,0.00,VWS V14.00,2013-07-04 13:05:00,
2013-07-04 08:10:00,68.4,60.9,29.97,East,90,3.0,8.0,77,0.00,,---,0.00,VWS V14.00,2013-07-04 13:10:00,
2013-07-04 08:15:00,69.2,60.6,29.97,ESE,112,6.0,10.0,74,0.00,,---,0.00,VWS V14.00,2013-07-04 13:15:00,
2013-07-04 08:20:00,70.0,61.0,29.97,ESE,112,5.0,11.0,73,0.00,,---,0.00,VWS V14.00,2013-07-04 13:20:00,
2013-07-04 08:25:00,70.8,60.9,29.97,SE,135,6.0,12.0,71,0.00,,---,0.00,VWS V14.00,2013-07-04 13:25:00,
2013-07-04 08:30:00,71.4,60.7,29.97,SE,135,7.0,12.0,69,0.00,,---,0.00,VWS V14.00,2013-07-04 13:30:00,
2013-07-04 08:35:00,72.0,61.3,29.98,SE,135,7.0,11.0,69,0.00,,---,0.00,VWS V14.00,2013-07-04 13:35:00,
2013-07-04 08:40:00,72.5,61.3,29.98,SSE,158,7.0,12.0,68,0.00,,---,0.00,VWS V14.00,2013-07-04 13:40:00,
2013-07-04 08:45:00,73.0,61.4,29.98,SSE,158,5.0,13.0,67,0.00,,---,0.00,VWS V14.00,2013-07-04 13:45:00,
2013-07-04 08:50:00,73.5,61.9,29.98,SSE,158,6.0,10.0,67,0.00,,---,0.00,VWS V14.00,2013-07-04 13:50:00,
2013-07-04 08:55:00,73.9,61.4,29.98,SSE,158,8.0,12.0,65,0.00,,---,0.00,VWS V14.00,2013-07-04 13:55:00,
2013-07-04 09:00:00,74.1,61.2,29.99,SSE,158,8.0,16.0,64,0.00,,---,0.00,VWS V14.00,2013-07-04 14:00:00,
2013-07-04 09:05:00,74.4,61.9,29.99,South,180,6.0,10.0,65,0.00,,---,0.00,VWS V14.00,2013-07-04 14:05:00,
2013-07-04 09:10:00,74.8,61.8,29.99,SSE,158,8.0,14.0,64,0.00,,---,0.00,VWS V14.00,2013-07-04 14:10:00,
2013-07-04 09:15:00,75.2,61.8,29.98,SSE,158,9.0,13.0,63,0.00,,---,0.00,VWS V14.00,2013-07-04 14:15:00,
2013-07-04 09:20:00,75.4,62.4,29.99,SSE,158,6.0,10.0,64,0.00,,---,0.00,VWS V14.00,2013-07-04 14:20:00,
2013-07-04 09:25:00,75.9,62.4,29.99,South,180,6.0,12.0,63,0.00,,---,0.00,VWS V14.00,2013-07-04 14:25:00,
2013-07-04 09:30:00,76.4,62.4,29.99,South,180,8.0,14.0,62,0.00,,---,0.00,VWS V14.00,2013-07-04 14:30:00,
2013-07-04 09:35:00,76.5,62.5,29.99,South,180,6.0,11.0,62,0.00,,---,0.00,VWS V14.00,2013-07-04 14:35:00,
2013-07-04 09:40:00,76.5,63.0,29.98,SSE,158,7.0,13.0,63,0.00,,---,0.00,VWS V14.00,2013-07-04 14:40:00,
2013-07-04 09:45:00,76.8,62.3,29.98,SSE,158,9.0,14.0,61,0.00,,---,0.00,VWS V14.00,2013-07-04 14:45:00,
2013-07-04 09:50:00,77.3,62.8,29.98,South,180,8.0,14.0,61,0.00,,---,0.00,VWS V14.00,2013-07-04 14:50:00,
2013-07-04 09:55:00,77.8,63.3,29.98,SSE,158,8.0,12.0,61,0.00,,---,0.00,VWS V14.00,2013-07-04 14:55:00,
2013-07-04 10:00:00,78.3,62.8,29.98,SSE,158,9.0,15.0,59,0.00,,---,0.00,VWS V14.00,2013-07-04 15:00:00,
2013-07-04 10:05:00,78.6,63.1,29.98,SSE,158,10.0,16.0,59,0.00,,---,0.00,VWS V14.00,2013-07-04 15:05:00,
2013-07-04 10:10:00,78.8,63.8,29.98,South,180,8.0,13.0,60,0.00,,---,0.00,VWS V14.00,2013-07-04 15:10:00,
2013-07-04 10:15:00,79.3,63.3,29.98,SSE,158,9.0,16.0,58,0.00,,---,0.00,VWS V14.00,2013-07-04 15:15:00,
2013-07-04 10:20:00,79.7,63.6,29.97,SSE,158,10.0,15.0,58,0.00,,---,0.00,VWS V14.00,2013-07-04 15:20:00,
2013-07-04 10:25:00,80.1,63.5,29.97,South,180,9.0,15.0,57,0.00,,---,0.00,VWS V14.00,2013-07-04 15:25:00,
2013-07-04 10:30:00,80.6,63.5,29.98,South,180,11.0,16.0,56,0.00,,---,0.00,VWS V14.00,2013-07-04 15:30:00,
2013-07-04 10:35:00,80.9,63.2,29.97,South,180,11.0,19.0,55,0.00,,---,0.00,VWS V14.00,2013-07-04 15:35:00,
2013-07-04 10:40:00,81.1,62.9,29.97,South,180,11.0,16.0,54,0.00,,---,0.00,VWS V14.00,2013-07-04 15:40:00,
2013-07-04 10:45:00,81.5,64.3,29.97,South,180,6.0,11.0,56,0.00,,---,0.00,VWS V14.00,2013-07-04 15:45:00,
2013-07-04 10:50:00,82.0,64.3,29.97,SSE,158,9.0,13.0,55,0.00,,---,0.00,VWS V14.00,2013-07-04 15:50:00,
2013-07-04 10:55:00,82.3,64.0,29.97,SSE,158,8.0,15.0,54,0.00,,---,0.00,VWS V14.00,2013-07-04 15:55:00,
2013-07-04 11:00:00,82.5,64.7,29.97,SE,135,7.0,13.0,55,0.00,,---,0.00,VWS V14.00,2013-07-04 16:00:00,
2013-07-04 11:05:00,82.7,64.4,29.97,South,180,10.0,16.0,54,0.00,,---,0.00,VWS V14.00,2013-07-04 16:05:00,
2013-07-04 11:15:00,82.9,64.0,29.97,SSW,202,8.0,14.0,53,0.00,,---,0.00,VWS V14.00,2013-07-04 16:15:00,
2013-07-04 11:20:00,83.2,64.3,29.97,SSW,202,7.0,12.0,53,0.00,,---,0.00,VWS V14.00,2013-07-04 16:20:00,
2013-07-04 11:25:00,83.4,64.0,29.97,South,180,9.0,17.0,52,0.00,,---,0.00,VWS V14.00,2013-07-04 16:25:00,
2013-07-04 11:30:00,83.6,64.7,29.97,SSW,202,9.0,16.0,53,0.00,,---,0.00,VWS V14.00,2013-07-04 16:30:00,
2013-07-04 11:35:00,83.6,64.7,29.97,SSW,202,9.0,14.0,53,0.00,,---,0.00,VWS V14.00,2013-07-04 16:35:00,
2013-07-04 11:40:00,83.8,64.9,29.96,SSW,202,9.0,14.0,53,0.00,,---,0.00,VWS V14.00,2013-07-04 16:40:00,
2013-07-04 11:45:00,83.9,65.5,29.97,SSW,202,7.0,14.0,54,0.00,,---,0.00,VWS V14.00,2013-07-04 16:45:00,
2013-07-04 11:50:00,84.3,64.8,29.96,South,180,7.0,11.0,52,0.00,,---,0.00,VWS V14.00,2013-07-04 16:50:00,
2013-07-04 11:55:00,84.6,65.6,29.96,South,180,9.0,16.0,53,0.00,,---,0.00,VWS V14.00,2013-07-04 16:55:00,
2013-07-04 12:00:00,84.8,65.2,29.96,SSE,158,8.0,14.0,52,0.00,,---,0.00,VWS V14.00,2013-07-04 17:00:00,
2013-07-04 12:05:00,85.0,65.4,29.96,SSW,202,8.0,14.0,52,0.00,,---,0.00,VWS V14.00,2013-07-04 17:05:00,
2013-07-04 12:10:00,85.2,66.2,29.96,South,180,10.0,15.0,53,0.00,,---,0.00,VWS V14.00,2013-07-04 17:10:00,
2013-07-04 12:15:00,85.5,65.9,29.96,SW,225,7.0,13.0,52,0.00,,---,0.00,VWS V14.00,2013-07-04 17:15:00,
2013-07-04 12:20:00,85.8,65.6,29.95,South,180,8.0,15.0,51,0.00,,---,0.00,VWS V14.00,2013-07-04 17:20:00,
2013-07-04 12:25:00,85.8,65.6,29.95,SW,225,8.0,15.0,51,0.00,,---,0.00,VWS V14.00,2013-07-04 17:25:00,
2013-07-04 12:30:00,85.5,65.9,29.95,SSE,158,6.0,13.0,52,0.00,,---,0.00,VWS V14.00,2013-07-04 17:30:00,
2013-07-04 12:35:00,85.6,65.4,29.95,SSW,202,9.0,16.0,51,0.00,,---,0.00,VWS V14.00,2013-07-04 17:35:00,
2013-07-04 12:40:00,85.7,65.5,29.95,SW,225,8.0,14.0,51,0.00,,---,0.00,VWS V14.00,2013-07-04 17:40:00,
2013-07-04 12:45:00,85.7,64.9,29.95,SSW,202,6.0,11.0,50,0.00,,---,0.00,VWS V14.00,2013-07-04 17:45:00,
2013-07-04 12:50:00,86.2,65.4,29.94,SSW,202,6.0,13.0,50,0.00,,---,0.00,VWS V14.00,2013-07-04 17:50:00,
2013-07-04 12:55:00,86.6,65.2,29.94,SSW,202,8.0,13.0,49,0.00,,---,0.00,VWS V14.00,2013-07-04 17:55:00,
2013-07-04 13:00:00,86.9,65.5,29.94,South,180,8.0,13.0,49,0.00,,---,0.00,VWS V14.00,2013-07-04 18:00:00,
2013-07-04 13:05:00,87.0,65.0,29.94,South,180,5.0,12.0,48,0.00,,---,0.00,VWS V14.00,2013-07-04 18:05:00,
2013-07-04 13:10:00,87.3,64.6,29.94,SW,225,9.0,13.0,47,0.00,,---,0.00,VWS V14.00,2013-07-04 18:10:00,
2013-07-04 13:15:00,86.9,64.3,29.94,SW,225,7.0,12.0,47,0.00,,---,0.00,VWS V14.00,2013-07-04 18:15:00,
2013-07-04 13:20:00,86.7,64.1,29.94,SSW,202,5.0,11.0,47,0.00,,---,0.00,VWS V14.00,2013-07-04 18:20:00,
2013-07-04 13:25:00,86.8,65.4,29.94,SSW,202,5.0,12.0,49,0.00,,---,0.00,VWS V14.00,2013-07-04 18:25:00,
2013-07-04 13:30:00,87.3,64.0,29.94,SSW,202,5.0,9.0,46,0.00,,---,0.00,VWS V14.00,2013-07-04 18:30:00,
2013-07-04 13:35:00,87.8,63.8,29.93,South,180,6.0,13.0,45,0.00,,---,0.00,VWS V14.00,2013-07-04 18:35:00,
2013-07-04 13:40:00,88.3,63.7,29.93,SSW,202,8.0,14.0,44,0.00,,---,0.00,VWS V14.00,2013-07-04 18:40:00,
2013-07-04 13:45:00,88.4,63.7,29.93,SSW,202,5.0,11.0,44,0.00,,---,0.00,VWS V14.00,2013-07-04 18:45:00,
2013-07-04 13:50:00,88.8,63.4,29.93,SSW,202,6.0,13.0,43,0.00,,---,0.00,VWS V14.00,2013-07-04 18:50:00,
2013-07-04 13:55:00,88.7,62.0,29.92,WSW,248,6.0,12.0,41,0.00,,---,0.00,VWS V14.00,2013-07-04 18:55:00,
2013-07-04 14:00:00,88.3,63.7,29.93,WSW,248,6.0,16.0,44,0.00,,---,0.00,VWS V14.00,2013-07-04 19:00:00,
2013-07-04 14:05:00,88.6,63.3,29.92,SW,225,3.0,7.0,43,0.00,,---,0.00,VWS V14.00,2013-07-04 19:05:00,
2013-07-04 14:10:00,88.7,63.3,29.92,West,270,6.0,10.0,43,0.00,,---,0.00,VWS V14.00,2013-07-04 19:10:00,
2013-07-04 14:15:00,88.0,63.4,29.92,West,270,6.0,9.0,44,0.00,,---,0.00,VWS V14.00,2013-07-04 19:15:00,
2013-07-04 14:20:00,88.0,62.7,29.92,West,270,3.0,10.0,43,0.00,,---,0.00,VWS V14.00,2013-07-04 19:20:00,
2013-07-04 14:25:00,88.6,63.3,29.92,WSW,248,6.0,10.0,43,0.00,,---,0.00,VWS V14.00,2013-07-04 19:25:00,
2013-07-04 14:30:00,88.8,61.4,29.92,WSW,248,4.0,13.0,40,0.00,,---,0.00,VWS V14.00,2013-07-04 19:30:00,
2013-07-04 14:35:00,88.9,62.9,29.91,WSW,248,5.0,11.0,42,0.00,,---,0.00,VWS V14.00,2013-07-04 19:35:00,
2013-07-04 14:40:00,88.7,62.0,29.92,South,180,6.0,12.0,41,0.00,,---,0.00,VWS V14.00,2013-07-04 19:40:00,
2013-07-04 14:45:00,88.3,63.0,29.91,SE,135,5.0,9.0,43,0.00,,---,0.00,VWS V14.00,2013-07-04 19:45:00,
2013-07-04 14:50:00,88.8,62.8,29.91,SSE,158,5.0,12.0,42,0.00,,---,0.00,VWS V14.00,2013-07-04 19:50:00,
2013-07-04 14:55:00,89.0,62.3,29.91,ESE,112,5.0,10.0,41,0.00,,---,0.00,VWS V14.00,2013-07-04 19:55:00,
2013-07-04 15:00:00,88.9,63.5,29.91,ESE,112,1.0,4.0,43,0.00,,---,0.00,VWS V14.00,2013-07-04 20:00:00,
2013-07-04 15:05:00,89.4,61.9,29.90,ESE,112,3.0,10.0,40,0.00,,---,0.00,VWS V14.00,2013-07-04 20:05:00,
2013-07-04 15:10:00,90.1,63.2,29.90,SSW,202,5.0,14.0,41,0.00,,---,0.00,VWS V14.00,2013-07-04 20:10:00,
2013-07-04 15:15:00,90.2,64.0,29.90,SE,135,6.0,11.0,42,0.00,,---,0.00,VWS V14.00,2013-07-04 20:15:00,
2013-07-04 15:20:00,89.5,63.4,29.90,ESE,112,5.0,9.0,42,0.00,,---,0.00,VWS V14.00,2013-07-04 20:20:00,
2013-07-04 15:25:00,88.9,63.5,29.90,ESE,112,3.0,7.0,43,0.00,,---,0.00,VWS V14.00,2013-07-04 20:25:00,
2013-07-04 15:30:00,88.7,62.7,29.90,ESE,112,3.0,6.0,42,0.00,,---,0.00,VWS V14.00,2013-07-04 20:30:00,
2013-07-04 15:35:00,88.9,63.5,29.90,SE,135,4.0,10.0,43,0.00,,---,0.00,VWS V14.00,2013-07-04 20:35:00,
2013-07-04 15:40:00,89.2,63.8,29.90,ESE,112,5.0,7.0,43,0.00,,---,0.00,VWS V14.00,2013-07-04 20:40:00,
2013-07-04 15:45:00,89.0,63.6,29.90,ESE,112,2.0,9.0,43,0.00,,---,0.00,VWS V14.00,2013-07-04 20:45:00,
2013-07-04 15:50:00,89.1,63.7,29.90,SE,135,6.0,11.0,43,0.00,,---,0.00,VWS V14.00,2013-07-04 20:50:00,
2013-07-04 15:55:00,88.7,63.3,29.90,ESE,112,6.0,11.0,43,0.00,,---,0.00,VWS V14.00,2013-07-04 20:55:00,
2013-07-04 16:00:00,88.4,63.1,29.89,SE,135,3.0,6.0,43,0.00,,---,0.00,VWS V14.00,2013-07-04 21:00:00,
2013-07-04 16:05:00,88.2,62.9,29.89,SE,135,4.0,7.0,43,0.00,,---,0.00,VWS V14.00,2013-07-04 21:05:00,
2013-07-04 16:10:00,87.7,63.1,29.89,ESE,112,5.0,7.0,44,0.00,,---,0.00,VWS V14.00,2013-07-04 21:10:00,
2013-07-04 16:15:00,87.2,63.9,29.89,ESE,112,5.0,8.0,46,0.00,,---,0.00,VWS V14.00,2013-07-04 21:15:00,
2013-07-04 16:20:00,87.3,63.4,29.89,ESE,112,4.0,7.0,45,0.00,,---,0.00,VWS V14.00,2013-07-04 21:20:00,
2013-07-04 16:34:00,87.3,63.4,29.89,ESE,112,4.0,6.0,45,0.00,,---,0.00,VWS V14.00,2013-07-04 21:34:00,
2013-07-04 16:35:00,87.8,63.8,29.89,ESE,113,6.0,7.0,45,0.00,,---,0.00,VWS V14.00,2013-07-04 21:35:00,
2013-07-04 16:39:00,87.8,63.2,29.89,ESE,121,7.0,7.0,44,0.00,,---,0.00,VWS V14.00,2013-07-04 21:39:00,
2013-07-04 16:44:00,88.4,62.4,29.89,ESE,123,4.0,7.0,42,0.00,,---,0.00,VWS V14.00,2013-07-04 21:44:00,
2013-07-04 16:49:00,88.9,63.5,29.89,SE,138,15.0,15.0,43,0.00,,---,0.00,VWS V14.00,2013-07-04 21:49:00,
2013-07-04 16:54:00,88.1,64.1,29.88,SE,142,6.0,13.0,45,0.00,,---,0.00,VWS V14.00,2013-07-04 21:54:00,
2013-07-04 16:59:00,87.2,63.9,29.88,SE,140,5.0,10.0,46,0.00,,---,0.00,VWS V14.00,2013-07-04 21:59:00,
2013-07-04 17:04:00,86.5,63.9,29.88,SE,133,10.0,13.0,47,0.00,,---,0.00,VWS V14.00,2013-07-04 22:04:00,
2013-07-04 17:09:00,86.1,64.7,29.88,SE,133,10.0,12.0,49,0.00,,---,0.00,VWS V14.00,2013-07-04 22:09:00,
2013-07-04 17:14:00,86.4,63.8,29.88,SE,133,10.0,13.0,47,0.00,,---,0.00,VWS V14.00,2013-07-04 22:14:00,
2013-07-04 17:19:00,86.6,64.0,29.88,ESE,113,9.0,13.0,47,0.00,,---,0.00,VWS V14.00,2013-07-04 22:19:00,
2013-07-04 17:24:00,86.9,64.3,29.87,SE,126,11.0,13.0,47,0.00,,---,0.00,VWS V14.00,2013-07-04 22:24:00,
2013-07-04 17:29:00,87.0,64.3,29.88,SE,146,7.0,13.0,47,0.00,,---,0.00,VWS V14.00,2013-07-04 22:29:00,
2013-07-04 17:34:00,87.1,63.8,29.87,SE,134,9.0,12.0,46,0.00,,---,0.00,VWS V14.00,2013-07-04 22:34:00,
2013-07-04 17:39:00,87.4,64.1,29.87,SE,137,4.0,10.0,46,0.00,,---,0.00,VWS V14.00,2013-07-04 22:39:00,
2013-07-04 17:44:00,87.5,64.2,29.87,SE,124,10.0,10.0,46,0.00,,---,0.00,VWS V14.00,2013-07-04 22:44:00,
2013-07-04 17:49:00,87.2,62.7,29.87,ESE,105,12.0,14.0,44,0.00,,---,0.00,VWS V14.00,2013-07-04 22:49:00,
2013-07-04 17:54:00,87.0,63.1,29.87,SE,126,7.0,13.0,45,0.00,,---,0.00,VWS V14.00,2013-07-04 22:54:00,
2013-07-04 17:59:00,87.0,63.1,29.87,ESE,107,10.0,11.0,45,0.00,,---,0.00,VWS V14.00,2013-07-04 22:59:00,
2013-07-04 18:04:00,86.8,61.6,29.87,SE,131,9.0,13.0,43,0.00,,---,0.00,VWS V14.00,2013-07-04 23:04:00,
2013-07-04 18:09:00,86.7,62.2,29.87,ESE,123,11.0,13.0,44,0.00,,---,0.00,VWS V14.00,2013-07-04 23:09:00,
2013-07-04 18:14:00,86.6,63.4,29.86,ESE,122,10.0,13.0,46,0.00,,---,0.00,VWS V14.00,2013-07-04 23:14:00,
2013-07-04 18:19:00,86.5,62.7,29.86,ESE,117,9.0,13.0,45,0.00,,---,0.00,VWS V14.00,2013-07-04 23:19:00,
2013-07-04 18:24:00,86.4,62.6,29.87,ESE,117,9.0,13.0,45,0.00,,---,0.00,VWS V14.00,2013-07-04 23:24:00,
2013-07-04 18:29:00,86.2,62.4,29.87,SE,128,5.0,13.0,45,0.00,,---,0.00,VWS V14.00,2013-07-04 23:29:00,
2013-07-04 18:34:00,86.1,62.9,29.87,SE,132,12.0,12.0,46,0.00,,---,0.00,VWS V14.00,2013-07-04 23:34:00,
2013-07-04 18:39:00,86.0,64.0,29.87,SE,126,5.0,10.0,48,0.00,,---,0.00,VWS V14.00,2013-07-04 23:39:00,
2013-07-04 18:44:00,85.9,64.0,29.87,SSE,157,5.0,15.0,48,0.00,,---,0.00,VWS V14.00,2013-07-04 23:44:00,
2013-07-04 18:49:00,85.6,64.3,29.88,SE,130,6.0,16.0,49,0.00,,---,0.00,VWS V14.00,2013-07-04 23:49:00,
2013-07-04 18:54:00,85.2,63.9,29.87,ESE,122,8.0,13.0,49,0.00,,---,0.00,VWS V14.00,2013-07-04 23:54:00,
2013-07-04 18:59:00,84.9,63.6,29.87,SE,130,12.0,15.0,49,0.00,,---,0.00,VWS V14.00,2013-07-04 23:59:00,
2013-07-04 19:04:00,84.6,62.8,29.87,SE,128,9.0,14.0,48,0.00,,---,0.00,VWS V14.00,2013-07-05 00:04:00,
2013-07-04 19:09:00,84.4,63.2,29.87,ESE,121,10.0,15.0,49,0.00,,---,0.00,VWS V14.00,2013-07-05 00:09:00,
2013-07-04 19:14:00,84.2,63.6,29.87,ESE,122,11.0,14.0,50,0.00,,---,0.00,VWS V14.00,2013-07-05 00:14:00,
2013-07-04 19:19:00,84.1,63.5,29.87,SE,125,12.0,13.0,50,0.00,,---,0.00,VWS V14.00,2013-07-05 00:19:00,
2013-07-04 19:24:00,83.9,63.3,29.88,SE,127,12.0,12.0,50,0.00,,---,0.00,VWS V14.00,2013-07-05 00:24:00,
2013-07-04 19:29:00,83.9,63.3,29.88,SE,131,8.0,11.0,50,0.00,,---,0.00,VWS V14.00,2013-07-05 00:29:00,
2013-07-04 19:34:00,83.8,63.8,29.88,SE,124,6.0,9.0,51,0.00,,---,0.00,VWS V14.00,2013-07-05 00:34:00,
2013-07-04 19:39:00,83.7,63.1,29.88,SE,126,9.0,15.0,50,0.00,,---,0.00,VWS V14.00,2013-07-05 00:39:00,
2013-07-04 19:44:00,83.6,63.6,29.88,SE,126,7.0,9.0,51,0.00,,---,0.00,VWS V14.00,2013-07-05 00:44:00,
2013-07-04 19:49:00,83.4,63.4,29.88,SE,130,7.0,13.0,51,0.00,,---,0.00,VWS V14.00,2013-07-05 00:49:00,
2013-07-04 19:54:00,83.2,63.8,29.88,SE,134,5.0,10.0,52,0.00,,---,0.00,VWS V14.00,2013-07-05 00:54:00,
2013-07-04 19:59:00,82.9,63.5,29.88,SE,140,7.0,12.0,52,0.00,,---,0.00,VWS V14.00,2013-07-05 00:59:00,
2013-07-04 20:04:00,82.5,62.6,29.89,SE,141,5.0,12.0,51,0.00,,---,0.00,VWS V14.00,2013-07-05 01:04:00,
2013-07-04 20:09:00,82.1,61.6,29.89,SE,138,10.0,11.0,50,0.00,,---,0.00,VWS V14.00,2013-07-05 01:09:00,
2013-07-04 20:14:00,81.8,61.4,29.89,SE,134,6.0,10.0,50,0.00,,---,0.00,VWS V14.00,2013-07-05 01:14:00,
2013-07-04 20:19:00,81.5,61.7,29.88,SE,131,5.0,9.0,51,0.00,,---,0.00,VWS V14.00,2013-07-05 01:19:00,
2013-07-04 20:24:00,81.1,61.8,29.88,SE,134,10.0,11.0,52,0.00,,---,0.00,VWS V14.00,2013-07-05 01:24:00,
2013-07-04 20:29:00,80.8,61.5,29.88,SE,136,3.0,7.0,52,0.00,,---,0.00,VWS V14.00,2013-07-05 01:29:00,
2013-07-04 20:34:00,80.4,61.7,29.88,SE,134,6.0,10.0,53,0.00,,---,0.00,VWS V14.00,2013-07-05 01:34:00,
2013-07-04 20:39:00,80.1,61.4,29.88,SE,135,3.0,6.0,53,0.00,,---,0.00,VWS V14.00,2013-07-05 01:39:00,
2013-07-04 20:44:00,79.7,61.6,29.88,SE,136,5.0,7.0,54,0.00,,---,0.00,VWS V14.00,2013-07-05 01:44:00,
2013-07-04 20:49:00,79.4,61.8,29.88,SE,136,4.0,5.0,55,0.00,,---,0.00,VWS V14.00,2013-07-05 01:49:00,
2013-07-04 20:54:00,79.1,62.1,29.88,SE,136,3.0,4.0,56,0.00,,---,0.00,VWS V14.00,2013-07-05 01:54:00,
2013-07-04 20:59:00,78.7,61.7,29.89,SE,136,3.0,4.0,56,0.00,,---,0.00,VWS V14.00,2013-07-05 01:59:00,
2013-07-04 21:04:00,78.4,61.9,29.89,SE,136,2.0,3.0,57,0.00,,---,0.00,VWS V14.00,2013-07-05 02:04:00,
2013-07-04 21:09:00,78.0,62.0,29.89,SE,136,1.0,4.0,58,0.00,,---,0.00,VWS V14.00,2013-07-05 02:09:00,
2013-07-04 21:14:00,77.6,62.2,29.89,SE,136,0.0,3.0,59,0.00,,---,0.00,VWS V14.00,2013-07-05 02:14:00,
2013-07-04 21:19:00,77.3,61.9,29.89,SE,136,4.0,5.0,59,0.00,,---,0.00,VWS V14.00,2013-07-05 02:19:00,
2013-07-04 21:24:00,77.0,62.1,29.89,SE,136,3.0,5.0,60,0.00,,---,0.00,VWS V14.00,2013-07-05 02:24:00,
2013-07-04 21:29:00,76.8,62.3,29.89,SE,136,2.0,5.0,61,0.00,,---,0.00,VWS V14.00,2013-07-05 02:29:00,
2013-07-04 21:34:00,76.6,62.2,29.90,SE,136,2.0,4.0,61,0.00,,---,0.00,VWS V14.00,2013-07-05 02:34:00,
2013-07-04 21:39:00,76.4,62.4,29.90,SE,136,1.0,3.0,62,0.00,,---,0.00,VWS V14.00,2013-07-05 02:39:00,
2013-07-04 21:44:00,76.1,62.2,29.90,SE,136,0.0,0.0,62,0.00,,---,0.00,VWS V14.00,2013-07-05 02:44:00,
2013-07-04 21:49:00,75.8,62.3,29.90,SE,136,3.0,4.0,63,0.00,,---,0.00,VWS V14.00,2013-07-05 02:49:00,
2013-07-04 21:54:00,75.5,62.5,29.90,SE,136,2.0,3.0,64,0.00,,---,0.00,VWS V14.00,2013-07-05 02:54:00,
2013-07-04 21:59:00,75.2,62.6,29.90,SE,136,0.0,0.0,65,0.00,,---,0.00,VWS V14.00,2013-07-05 02:59:00,
2013-07-04 22:04:00,74.8,62.3,29.91,SE,136,0.0,2.0,65,0.00,,---,0.00,VWS V14.00,2013-07-05 03:04:00,
2013-07-04 22:09:00,74.6,62.5,29.91,SE,136,0.0,3.0,66,0.00,,---,0.00,VWS V14.00,2013-07-05 03:09:00,
2013-07-04 22:14:00,74.3,62.6,29.91,SE,136,0.0,0.0,67,0.00,,---,0.00,VWS V14.00,2013-07-05 03:14:00,
2013-07-04 22:19:00,74.0,62.4,29.91,SE,136,0.0,3.0,67,0.00,,---,0.00,VWS V14.00,2013-07-05 03:19:00,
2013-07-04 22:24:00,73.8,62.6,29.92,SE,136,4.0,5.0,68,0.00,,---,0.00,VWS V14.00,2013-07-05 03:24:00,
2013-07-04 22:29:00,73.5,62.3,29.91,SE,136,3.0,5.0,68,0.00,,---,0.00,VWS V14.00,2013-07-05 03:29:00,
2013-07-04 22:34:00,73.4,62.6,29.91,SE,136,2.0,4.0,69,0.00,,---,0.00,VWS V14.00,2013-07-05 03:34:00,
2013-07-04 22:39:00,73.3,62.5,29.91,SE,136,3.0,6.0,69,0.00,,---,0.00,VWS V14.00,2013-07-05 03:39:00,
2013-07-04 22:44:00,73.3,62.5,29.91,SE,136,1.0,5.0,69,0.00,,---,0.00,VWS V14.00,2013-07-05 03:44:00,
2013-07-04 22:49:00,73.2,62.4,29.91,SE,136,3.0,4.0,69,0.00,,---,0.00,VWS V14.00,2013-07-05 03:49:00,
2013-07-04 22:54:00,73.1,62.3,29.91,SE,136,3.0,5.0,69,0.00,,---,0.00,VWS V14.00,2013-07-05 03:54:00,
2013-07-04 22:59:00,73.0,62.2,29.91,SE,136,5.0,5.0,69,0.00,,---,0.00,VWS V14.00,2013-07-05 03:59:00,
2013-07-04 23:01:00,72.9,62.1,29.91,SE,136,3.0,5.0,69,0.00,,---,0.00,VWS V14.00,2013-07-05 04:01:00,
2013-07-04 23:06:00,72.9,62.1,29.91,SE,136,2.0,6.0,69,0.00,,---,0.00,VWS V14.00,2013-07-05 04:06:00,
2013-07-04 23:11:00,72.8,62.5,29.91,SE,136,3.0,5.0,70,0.00,,---,0.00,VWS V14.00,2013-07-05 04:11:00,
2013-07-04 23:16:00,72.6,62.3,29.91,SE,136,3.0,4.0,70,0.00,,---,0.00,VWS V14.00,2013-07-05 04:16:00,
2013-07-04 23:21:00,72.5,62.2,29.91,SE,136,3.0,4.0,70,0.00,,---,0.00,VWS V14.00,2013-07-05 04:21:00,
2013-07-04 23:26:00,72.4,62.1,29.91,SE,136,2.0,4.0,70,0.00,,---,0.00,VWS V14.00,2013-07-05 04:26:00,
2013-07-04 23:31:00,72.3,62.4,29.91,SE,136,3.0,4.0,71,0.00,,---,0.00,VWS V14.00,2013-07-05 04:31:00,
2013-07-04 23:36:00,72.2,62.3,29.91,SE,136,5.0,5.0,71,0.00,,---,0.00,VWS V14.00,2013-07-05 04:36:00,
2013-07-04 23:41:00,72.2,62.3,29.91,SE,136,6.0,6.0,71,0.00,,---,0.00,VWS V14.00,2013-07-05 04:41:00,
2013-07-04 23:46:00,72.1,62.2,29.90,SE,136,4.0,10.0,71,0.00,,---,0.00,VWS V14.00,2013-07-05 04:46:00,
2013-07-04 23:51:00,72.1,61.8,29.90,SE,136,5.0,7.0,70,0.00,,---,0.00,VWS V14.00,2013-07-05 04:51:00,
2013-07-04 23:56:00,72.1,61.8,29.91,SE,136,3.0,6.0,70,0.00,,---,0.00,VWS V14.00,2013-07-05 04:56:00,